Dewpoint
54 55 56 57 57 57 58 58 58 58 58 58 57 57 57 57 57 57 57 57 56 56 56 56 55 55 55 55 56 56 56 57 57 57 57 57 57 57 57 57 56 57 57 57 57 57 57 56 56 57 57 57 56 56 55 55 55 54 53 52 51 51 50 49 47 47 38 31 36 36 30 27 26 28 28 28 29 30 28 29 30 31 30 29 30
52 53 54 55 56 57 57 57 58 58 58 58 57 57 57 57 57 57 56 57 56 56 56 56 56 56 55 55 55 56 56 57 57 57 57 57 57 57 57 57 56 56 57 56 56 57 57 56 56 57 57 56 56 55 55 53 50 49 49 49 50 49 49 49 48 49 47 30 31 32 27 27 25 27 28 27 28 28 27 27 29 28 25 25 26
50 52 53 54 55 56 56 56 57 57 57 58 57 57 57 57 57 56 56 57 56 56 56 56 56 56 55 56 56 56 56 56 57 57 57 57 57 57 57 57 57 56 56 56 56 56 56 56 56 56 56 55 55 54 50 50 49 49 49 49 49 49 47 48 48 47 46 35 31 28 26 26 26 26 27 28 28 28 26 25 26 26 25 24 23
47 48 50 52 53 53 54 55 54 55 56 57 57 57 57 57 57 57 57 56 55 56 56 56 56 55 55 55 55 56 56 56 57 57 57 57 57 57 57 57 57 57 57 56 56 56 55 55 55 54 52 52 50 50 49 49 49 49 49 47 47 47 46 45 47 48 47 36 27 27 27 25 25 27 27 26 25 25 23 24 25 25 25 25 23
43 46 47 49 49 50 51 52 52 53 54 55 55 56 56 56 56 56 56 56 56 55 55 55 55 56 56 56 56 56 56 56 57 57 57 57 57 57 57 57 57 57 57 57 52 56 55 54 55 54 51 52 48 47 45 45 45 46 46 46 45 46 46 44 44 43 40 39 30 27 26 24 26 26 25 23 23 23 22 22 23 24 24 24 25
38 41 43 45 47 47 49 50 50 52 53 53 54 54 54 53 54 54 55 57 55 55 55 55 55 55 55 56 56 56 56 56 56 57 57 57 57 57 57 57 57 57 56 56 56 55 54 54 55 53 50 51 48 46 44 45 45 44 45 45 45 45 44 42 41 39 38 37 29 26 25 25 23 24 24 23 21 21 21 21 22 22 21 20 22
36 38 40 42 45 46 47 48 49 50 50 51 50 49 50 51 51 53 53 55 55 54 54 54 54 55 55 56 56 56 56 56 56 56 56 56 56 56 56 56 56 55 55 55 55 54 54 54 53 51 50 50 49 46 44 44 44 44 44 45 45 44 42 41 40 40 37 32 28 26 25 24 22 22 23 23 22 23 21 21 21 21 22 22 22
36 36 37 39 41 44 45 46 46 47 47 47 48 49 49 49 50 51 51 52 54 54 54 54 54 54 55 55 55 55 55 55 55 56 56 56 56 56 55 54 54 54 53 53 53 53 53 52 51 49 49 49 49 47 45 45 44 44 44 44 42 41 42 40 35 33 32 30 27 24 23 21 21 22 22 22 23 23 24 23 22 21 21 22 21
37 37 37 38 39 40 41 41 43 44 45 47 47 48 48 48 48 49 49 50 51 52 53 53 53 52 53 54 54 54 55 55 55 55 55 55 55 55 55 54 54 53 51 49 48 48 49 49 47 47 46 44 44 44 43 43 45 44 43 42 41 40 39 37 33 30 29 28 26 23 22 22 23 25 25 25 23 24 24 24 23 23 23 22 22
36 37 37 39 40 39 38 38 40 42 44 45 46 46 46 46 46 46 47 48 49 49 50 50 51 52 52 52 53 53 54 54 49 48 49 54 54 54 54 53 52 51 49 47 45 44 45 46 45 41 41 40 40 40 41 40 41 44 44 42 40 38 36 34 32 30 29 28 27 24 25 25 24 24 24 25 25 26 23 23 22 22 22 22 22
36 36 37 38 38 37 38 38 38 40 41 43 43 43 45 43 43 44 44 44 45 45 47 48 49 50 51 51 51 51 52 52 46 47 48 48 52 54 53 52 50 48 47 47 46 44 43 43 43 40 38 37 38 39 40 40 39 39 39 38 38 39 35 34 32 30 31 31 29 27 27 27 24 22 22 24 25 22 24 23 22 22 20 19 18
36 36 37 37 37 38 38 37 37 38 39 40 41 41 41 41 42 42 42 42 42 42 43 46 47 48 49 49 50 50 50 45 46 47 47 47 47 51 52 51 50 47 46 45 45 44 43 41 40 40 40 41 41 40 39 38 38 38 38 37 37 37 37 36 33 31 31 31 29 28 26 26 25 24 24 22 22 23 23 23 23 22 21 19 19
36 36 37 37 38 38 38 38 38 38 38 39 40 40 40 41 41 41 42 42 40 41 43 44 44 44 46 47 47 47 47 45 45 46 46 46 46 47 50 49 47 45 44 45 44 43 42 40 39 38 39 36 37 39 39 38 37 37 36 36 36 37 37 37 36 34 31 32 31 29 26 26 25 23 25 25 23 24 22 23 23 22 22 21 21
36 36 37 37 38 38 38 38 38 38 38 38 39 39 40 41 41 41 41 40 41 42 41 42 42 43 43 45 45 45 45 43 44 45 45 45 45 46 49 47 45 44 44 43 43 42 41 41 40 39 38 37 37 37 38 38 38 37 37 36 36 35 35 36 35 32 31 32 31 31 27 25 25 23 24 25 24 23 23 24 23 24 23 24 22
36 37 37 37 38 38 39 39 39 39 38 38 38 39 40 41 40 40 41 41 41 42 41 41 41 41 42 43 44 44 45 43 43 43 44 44 44 44 47 45 44 43 42 42 42 42 41 41 41 41 38 37 37 37 38 37 37 36 35 34 34 34 33 33 31 27 25 29 30 30 27 22 23 21 23 24 24 25 24 25 25 24 22 18 18
36 36 36 37 37 38 38 39 39 38 38 37 38 38 39 40 41 40 40 40 40 40 40 40 40 40 40 40 41 43 43 41 41 42 43 44 44 44 43 42 41 41 40 40 40 40 39 39 39 39 38 37 35 36 37 36 35 34 34 33 32 30 30 29 31 29 24 20 20 21 25 20 23 24 25 24 24 25 25 23 22 20 19 17 16
35 36 36 37 37 37 38 38 38 38 38 37 37 38 38 39 39 39 39 40 40 40 40 40 39 40 39 39 40 42 42 40 40 41 42 43 43 42 41 40 40 40 39 39 39 38 38 38 39 39 37 37 35 37 37 35 34 34 33 32 31 30 29 31 33 32 31 30 28 28 29 30 31 32 30 30 26 25 23 21 20 20 19 17 15
35 35 36 36 37 37 37 38 38 38 37 38 38 38 38 38 38 38 39 39 40 40 39 39 38 39 39 40 40 41 41 39 39 40 41 42 41 41 40 40 38 38 37 37 37 37 37 35 36 38 38 37 36 37 37 35 34 34 33 32 31 30 29 29 30 32 33 32 32 32 33 33 32 34 32 31 30 27 23 21 21 20 21 21 19
35 35 35 36 37 36 36 37 37 38 38 38 38 38 37 37 38 37 38 39 38 38 38 39 39 38 38 39 36 39 40 38 38 39 40 41 40 40 40 40 38 37 36 35 35 36 36 35 34 36 37 36 37 37 37 35 34 34 33 33 32 31 30 29 29 29 28 29 30 31 30 31 31 31 30 32 31 28 22 26 23 22 22 19 16
34 35 35 36 36 36 36 36 36 37 37 37 37 37 37 37 37 37 37 38 39 38 38 38 38 38 37 37 37 38 39 39 36 39 40 40 40 38 38 40 39 36 36 36 35 34 35 35 34 36 37 37 37 37 37 36 34 33 33 33 32 32 29 27 27 28 26 26 26 25 26 25 28 27 28 29 28 24 22 23 22 23 21 17 16
34 35 35 36 35 35 36 36 36 36 37 37 37 36 37 37 37 36 36 37 37 38 37 38 38 38 38 37 37 36 37 38 36 38 39 40 40 39 38 38 38 37 36 35 35 35 34 34 34 35 37 37 37 37 37 36 35 33 33 33 33 31 28 26 25 25 23 22 21 22 23 23 24 25 25 24 23 21 22 23 22 21 20 16 15
34 35 35 35 35 35 34 35 35 36 35 36 36 36 36 36 36 36 37 37 36 36 36 37 37 38 37 36 36 36 35 35 37 36 38 39 39 39 38 37 37 37 36 36 35 35 34 34 34 34 36 36 36 37 37 36 35 32 32 33 33 31 27 26 24 21 21 21 21 21 22 23 23 24 24 22 21 20 21 21 21 19 19 18 17
35 35 35 35 34 34 34 34 34 35 35 36 36 36 35 35 36 36 36 36 35 36 35 36 36 37 36 36 35 36 35 35 35 35 36 38 39 39 38 37 38 36 37 36 35 35 34 32 32 32 35 35 36 36 36 35 33 32 32 33 32 30 26 23 21 20 20 19 20 20 20 21 22 23 23 22 22 21 19 19 19 18 17 17 16
35 34 34 34 34 34 34 34 34 34 35 35 36 35 35 35 35 36 36 36 36 36 37 36 36 36 37 37 35 35 34 35 34 34 35 37 39 39 38 38 37 36 36 36 35 34 32 31 31 33 34 34 35 36 36 34 31 32 32 32 31 28 23 22 21 20 19 18 18 19 19 20 22 22 23 23 21 22 20 19 18 18 17 16 16
34 33 34 34 33 33 33 33 34 34 35 35 35 36 35 35 35 36 36 36 36 36 37 37 37 37 38 38 37 35 34 34 34 34 34 35 38 38 38 37 37 36 35 33 33 33 32 32 32 33 34 34 35 36 35 33 32 32 32 32 28 24 22 21 20 19 18 18 18 18 19 20 21 22 22 21 20 19 18 16 16 15 15 14 14
33 33 33 33 33 33 33 33 33 34 34 35 35 36 36 35 36 36 36 36 37 37 37 37 37 37 38 38 38 36 33 33 34 34 33 34 36 37 37 36 35 34 34 33 32 32 32 32 32 32 33 33 33 34 33 31 31 31 31 28 24 23 22 21 20 19 19 18 18 18 19 20 19 19 19 19 20 19 18 16 15 14 14 14 13
33 33 33 33 33 33 33 33 33 34 34 35 36 36 36 36 35 36 36 36 36 37 37 36 36 37 37 37 37 35 34 33 34 33 34 34 35 35 35 34 33 32 32 31 31 31 31 31 31 32 32 32 32 32 32 31 31 31 28 24 23 22 22 21 21 20 20 19 19 18 18 18 17 17 18 18 18 18 18 17 17 14 13 13 14
33 33 33 33 33 33 33 32 33 34 34 35 35 36 36 36 36 36 36 36 37 37 37 36 36 36 37 37 36 35 34 34 34 34 34 34 35 35 35 34 33 32 31 30 31 30 30 30 31 31 31 31 32 32 31 30 29 28 25 23 22 22 23 23 22 20 19 19 19 18 17 16 16 16 16 16 16 16 16 16 15 13 12 12 12
33 33 33 33 33 33 33 33 33 33 34 34 35 36 36 36 36 36 36 36 37 37 37 37 36 36 37 37 36 35 35 34 34 34 34 34 34 34 34 33 32 32 31 31 29 29 29 29 29 29 30 30 30 30 30 28 27 26 24 22 21 21 21 20 19 19 19 19 18 17 16 15 15 15 14 14 14 14 15 14 13 12 11 12 12
32 33 33 33 33 33 33 33 33 33 34 34 34 35 35 35 36 36 36 35 35 35 36 36 37 37 37 37 37 36 36 36 35 34 34 35 35 35 34 34 33 32 31 31 29 27 27 27 28 28 28 28 29 29 28 27 26 25 23 23 21 20 20 20 20 19 19 18 17 16 15 14 14 13 13 13 13 13 13 13 11 12 10 10 11
32 32 32 32 33 33 33 33 33 33 34 34 34 34 35 35 35 35 35 35 35 35 35 36 36 36 36 37 35 36 35 34 34 34 34 35 35 35 34 34 33 32 32 29 27 26 26 25 26 27 27 28 28 28 28 27 26 24 23 22 21 21 20 20 19 19 18 16 15 15 14 14 13 13 12 12 12 11 12 12 12 11 11 11 10
32 32 33 33 33 33 33 33 33 33 34 34 34 34 35 35 35 35 35 35 34 35 35 35 35 36 36 36 35 35 35 35 34 34 34 34 34 34 34 34 33 32 31 30 26 25 24 25 25 26 27 27 27 28 28 27 26 25 24 22 21 21 20 19 19 18 16 15 14 13 13 13 12 12 12 12 12 11 11 11 11 11 11 11 11
32 32 32 33 33 33 33 33 33 33 34 34 34 34 35 35 34 34 34 34 34 34 35 35 35 35 35 36 35 35 35 34 34 34 33 34 34 34 33 34 33 32 31 28 26 24 23 24 24 25 25 25 26 27 27 27 26 25 24 23 22 21 21 20 19 16 15 15 14 13 13 13 13 12 12 12 12 11 11 11 11 11 10 10 10
32 32 32 32 33 33 33 33 33 34 34 34 34 34 35 35 35 35 34 31 33 33 34 34 34 34 35 35 35 35 35 34 34 33 33 33 34 33 33 32 32 32 29 26 25 23 22 23 22 23 24 24 25 26 27 27 26 26 25 24 23 23 22 21 19 17 16 16 15 14 13 13 13 12 12 12 12 11 11 10 10 10 10 10 9
32 30 30 30 32 33 33 33 33 34 34 34 34 34 34 35 35 34 34 32 31 32 32 33 34 34 35 35 35 34 34 34 33 33 33 33 33 33 33 31 30 29 28 25 24 23 21 21 21 21 22 22 23 24 26 26 26 25 25 24 23 23 22 21 21 20 18 17 16 15 14 13 13 12 12 11 11 10 10 10 10 10 10 9 9
32 32 32 32 32 32 33 33 34 34 34 34 34 34 34 34 34 34 34 33 33 33 33 33 33 33 33 34 33 33 33 33 33 33 33 33 33 33 30 29 29 27 25 23 23 21 21 21 20 20 20 20 22 23 24 24 25 25 25 24 22 22 22 21 21 21 20 20 19 17 16 14 13 13 12 11 11 11 11 11 11 10 10 9 9
31 31 32 32 32 32 33 33 33 34 33 34 34 34 34 34 34 34 34 33 33 33 33 31 30 31 32 31 33 33 33 33 33 33 33 33 33 32 30 29 29 27 24 22 21 19 19 19 19 19 19 18 19 20 21 23 24 24 24 24 23 22 21 21 21 20 20 20 19 18 17 16 15 13 13 13 11 11 10 10 10 10 9 9 10
30 31 32 32 32 32 32 33 33 33 33 34 34 34 34 34 34 34 34 34 33 32 32 30 30 30 29 30 32 32 32 32 32 32 32 32 32 31 30 29 28 26 24 21 20 19 19 17 17 17 17 17 18 18 19 21 21 21 21 22 21 21 20 20 19 20 19 19 18 18 17 16 15 14 13 13 12 11 11 10 9 9 9 9 10
30 30 30 31 31 32 33 33 33 33 33 34 34 34 34 34 34 34 34 34 33 32 31 29 29 31 31 31 31 31 31 31 30 30 31 31 31 31 30 29 28 26 24 21 20 19 17 16 15 16 16 17 17 18 18 19 19 20 20 20 20 19 18 17 17 17 17 16 16 16 16 15 14 13 13 12 10 9 9 8 7 8 9 9 10
30 30 31 31 32 32 32 32 33 33 33 33 34 34 33 33 33 33 34 33 33 32 31 29 29 30 31 30 30 31 30 29 29 30 30 30 30 29 29 28 28 26 23 21 20 19 17 16 15 15 16 16 17 17 18 18 18 18 18 19 18 17 17 16 15 15 15 14 14 13 13 12 12 11 10 10 10 9 8 7 7 8 9 10 9
29 30 28 31 32 32 31 32 32 33 33 33 33 33 33 33 33 33 33 33 33 32 30 30 30 30 29 29 30 31 30 30 29 30 30 29 29 28 28 28 27 26 24 22 20 19 18 17 16 16 16 16 16 16 16 17 16 16 17 17 17 16 16 14 14 13 12 11 10 10 10 9 9 10 10 10 11 10 10 9 8 8 8 8 8
29 30 31 31 31 32 32 32 32 32 31 32 33 33 33 32 33 33 32 32 31 31 30 29 30 29 28 29 30 30 31 30 29 29 28 28 27 27 27 27 27 26 24 23 21 20 19 18 17 17 16 16 15 15 15 15 15 15 15 15 15 14 13 12 11 11 10 10 10 10 10 10 10 11 11 12 11 10 9 9 9 8 7 7 6
28 29 30 30 31 31 31 32 32 32 32 32 32 29 30 32 32 31 31 31 31 30 29 28 28 25 26 28 29 29 29 28 24 27 27 27 27 26 26 26 26 26 25 24 23 22 21 20 20 19 18 16 16 16 16 15 15 15 14 14 14 13 13 12 12 11 12 12 12 12 12 12 12 11 11 11 10 10 9 9 8 8 8 7 6
27 28 28 29 29 30 30 31 31 31 31 29 29 30 30 30 30 30 30 30 29 28 28 28 25 24 25 26 27 27 27 26 26 27 26 25 25 25 25 24 24 23 23 23 23 22 22 21 20 20 19 18 18 17 17 16 16 15 15 14 14 14 13 13 13 13 13 13 13 13 13 12 12 11 10 10 10 10 9 8 8 7 7 6 6
26 27 27 28 28 28 29 29 29 30 28 28 29 29 27 29 29 29 29 29 27 26 26 25 23 23 24 25 26 27 26 25 24 24 24 24 24 23 21 20 21 20 21 21 21 21 20 19 17 16 14 15 15 15 16 16 17 17 16 16 15 15 15 15 15 14 14 14 14 13 13 12 11 11 11 10 10 9 8 8 8 6 6 5 5
24 25 26 26 26 26 27 28 26 28 28 28 28 28 27 27 27 27 27 27 25 25 25 23 22 22 23 24 25 23 23 23 22 22 21 20 18 17 17 17 17 17 18 18 18 17 16 16 15 13 11 10 10 10 10 9 9 10 12 15 15 13 12 12 13 14 14 14 13 13 12 11 11 11 10 10 9 9 8 8 7 7 6 5 5
22 24 24 25 25 25 25 25 26 26 26 26 26 26 26 25 26 25 24 24 24 23 23 22 22 22 23 23 23 21 19 19 19 17 16 15 14 14 14 14 14 14 14 14 13 14 13 12 11 11 10 9 8 8 7 5 7 7 5 5 6 6 7 6 8 9 10 11 12 12 12 11 10 9 8 8 7 7 7 7 6 6 5 5 3
21 22 23 23 24 24 24 24 24 20 23 24 24 24 24 24 24 23 23 22 22 21 21 21 21 22 21 21 18 17 16 16 14 13 12 11 11 11 11 11 10 11 11 11 10 10 10 10 9 8 6 6 5 4 2 2 1 1 1 1 1 1 1 1 1 -0 0 2 6 8 9 10 9 9 8 8 8 7 6 5 4 4 3 3 2
20 21 22 22 22 22 22 23 22 23 22 23 22 22 21 22 22 22 21 21 20 20 20 20 20 19 17 16 15 14 13 13 12 12 10 10 10 10 10 9 8 9 8 8 8 7 7 7 5 5 4 2 1 0 -0 -0 -1 -1 -2 -1 1 2 1 1 0 -0 -1 1 1 2 5 7 8 8 8 7 7 6 5 2 3 3 2 2 2
19 19 20 20 20 20 20 21 21 21 21 21 22 21 20 19 20 19 19 18 18 18 18 17 16 15 14 13 12 12 12 11 10 9 9 9 9 8 8 8 8 8 7 5 5 4 4 3 2 1 0 0 -0 -0 -1 -1 -2 -2 -1 3 5 5 4 4 4 3 2 1 1 2 3 5 6 7 7 7 6 5 4 4 3 3 3 2 1
17 17 17 18 18 18 18 19 19 19 19 19 19 19 17 17 17 17 16 16 16 16 15 15 14 13 12 12 11 11 10 9 9 8 8 8 8 7 6 6 4 3 3 2 2 1 1 0 -1 -1 -1 -2 -2 -2 -2 -2 -3 -1 4 5 5 3 3 2 1 1 1 0 -0 1 2 3 3 4 4 5 5 5 4 3 2 2 1 1 -0